Starlink 32345

operational
NORAD ID: 60920 Int'l Des: 2024-154 Owner: SPXS Country: US Constellation: starlink
LEOCIRCULAR

Über Starlink 32345

Beschreibung wird geladen...

Live-Position

3D-Globus wird geladen...

Nächste Überflüge

Höhenverlauf

Altitude vs Time

uPlot chart will show altitude changes over time

Zweizeiliger Elementsatz

1 60920U 24154T 25258.59883346 .00001505 00000-0 62953-4 0 9991
2 60920 53.1621 17.4134 0001204 90.8538 269.2601 15.30192529 59532
Epoch: 15. Sept. 2025 • Age: 13 hours

Aktueller Status

Höhe 479.0 km
Geschwindigkeit 7.63 km/s
Subsatellitenpunkt -13.42°S, 153.19°E
Startdatum 31. Aug. 2024
Alter 1 years
Typ internet

Technische Details

Klassifizierung Payload
Masse 730.00 kg
Trockenmasse 700.00 kg
Gesamtmasse 730.00 kg
Länge 0.30 m
Durchmesser 4.10 m
Spannweite 29.00 m
Form Box + pan
Hersteller SPXS
Bus-Typ Starlink V2M
Phasenstatus In Orbit
Besitzer/Staat SPXS/US

Große Konstellationen

Loading constellations...